Location: Aalen
(48.8330°N, 10.1000°E)
Time: 00:01:54
(UTC+02:00)

Transit 4A - Pass Details

Date: 09 August 2021
Orbit: 870 x 974 km, 66.8° (Epoch: 26 September)

Event Time Altitude Azimuth Distance (km) Brightness Sun altitude
Rises 22:22:05 0° 180° (S) 3,481 - -13.9°
Reaches altitude 10° 22:24:52 10° 169° (S) 2,534 - -14.2°
Exits shadow 22:26:46 19° 156° (SSE) 1,972 9.0 -14.4°
Maximum altitude 22:29:50 30° 111° (ESE) 1,525 8.5 -14.8°
Drops below altitude 10° 22:34:48 10° 52° (NE) 2,525 10.1 -15.3°
Sets 22:37:33 0° 42° (NE) 3,468 11.0 -15.6°
